Weather History for O'Neill, NE

Change the Weather History Date:

Tuesday, September 20, 2011

  Actual Average Record
Temperature  
Mean Temperature 60 °F -  
Max Temperature 68 °F 72 °F 94 °F (1984)
Min Temperature 51 °F 46 °F 24 °F (1991)
Degree Days  
Heating Degree Days 6    
Growing Degree Days 10 (Base 50)    
Moisture  
Dew Point 40 °F    
Average Humidity 49    
Maximum Humidity 72    
Minimum Humidity 28    
Precipitation  
Precipitation 0.03 in - - ()
Sea Level Pressure  
Sea Level Pressure 29.95 in    
Wind  
Wind Speed 17 mph (WNW)    
Max Wind Speed 31 mph    
Max Gust Speed 44 mph    
Visibility 10 miles    
Events      
Averages and records for this station are not official NWS values.
T = Trace of Precipitation, MM = Missing Value Source: NWS Daily Summary

Daily Weather History Graph

Daily Weather History Graph

Search for Another Location

Airport:

Trip Planner

Search our weather history database for the weather conditions in past years. The results will help you decide how hot, cold, wet, or windy it might be!

Date:

Astronomy

Sep. 20, 2011 Rise Set
Actual Time 7:19 AM CDT 7:35 PM CDT
Civil Twilight 6:51 AM CDT 8:04 PM CDT
Nautical Twilight 6:18 AM CDT 8:37 PM CDT
Astronomical Twilight 5:44 AM CDT 9:10 PM CDT
Moon No Moon Rise 3:07 PM CDT
Length of Visible Light 13h 12m
Length of Day
12h 16m
Waning Gibbous, 48% of the Moon is Illuminated
Sep 20
Waning Gibbous
Sep 27
New
Oct 3
First Quarter
Oct 11
Full
Oct 19
Last Quarter

Hourly Weather History & Observations

Time (CDT) Temp. Dew Point Humidity Pressure Visibility Wind Dir Wind Speed Gust Speed Precip Events Conditions
12:15 AM 64.4 °F 46.4 °F 52% 29.81 in 10.0 mi South 10.4 mph 16.1 mph N/A   Clear
12:35 AM 64.4 °F 46.4 °F 52% 29.81 in 10.0 mi South 13.8 mph 17.3 mph N/A   Clear
12:55 AM 64.4 °F 46.4 °F 52% 29.80 in 10.0 mi South 15.0 mph 20.7 mph N/A   Clear
1:15 AM 64.4 °F 46.4 °F 52% 29.80 in 10.0 mi South 12.7 mph 20.7 mph N/A   Clear
1:35 AM 64.4 °F 46.4 °F 52% 29.79 in 10.0 mi South 13.8 mph 23.0 mph N/A   Clear
1:55 AM 64.4 °F 46.4 °F 52% 29.78 in 10.0 mi South 15.0 mph 19.6 mph N/A   Clear
2:15 AM 62.6 °F 46.4 °F 55% 29.77 in 10.0 mi South 12.7 mph 19.6 mph N/A   Clear
2:35 AM 64.4 °F 46.4 °F 52% 29.76 in 10.0 mi SSW 16.1 mph 21.9 mph N/A   Clear
2:55 AM 64.4 °F 44.6 °F 49% 29.76 in 10.0 mi SSW 15.0 mph 20.7 mph N/A   Clear
3:15 AM 62.6 °F 44.6 °F 52% 29.78 in 10.0 mi SW 11.5 mph 16.1 mph N/A   Clear
3:55 AM 60.8 °F 46.4 °F 59% 29.87 in 10.0 mi NW 27.6 mph 38.0 mph N/A   Clear
4:15 AM 59.0 °F 48.2 °F 67% 29.88 in 10.0 mi NW 13.8 mph 19.6 mph N/A   Clear
4:35 AM 59.0 °F 46.4 °F 63% 29.88 in 10.0 mi NNW 16.1 mph 23.0 mph N/A   Clear
4:55 AM 59.0 °F 46.4 °F 63% 29.90 in 10.0 mi NW 12.7 mph - N/A   Clear
5:15 AM 59.0 °F 44.6 °F 59% 29.90 in 10.0 mi NW 11.5 mph 17.3 mph N/A   Clear
5:35 AM 57.2 °F 44.6 °F 63% 29.92 in 10.0 mi NW 17.3 mph 23.0 mph N/A   Clear
5:55 AM 57.2 °F 44.6 °F 63% 29.93 in 10.0 mi NW 12.7 mph 19.6 mph N/A   Clear
6:15 AM 55.4 °F 44.6 °F 67% 29.93 in 10.0 mi NW 15.0 mph 20.7 mph N/A   Clear
6:35 AM 55.4 °F 44.6 °F 67% 29.94 in 10.0 mi NW 19.6 mph 24.2 mph N/A   Clear
6:55 AM 55.4 °F 44.6 °F 67% 29.95 in 10.0 mi WNW 13.8 mph - N/A   Clear
7:15 AM 55.4 °F 44.6 °F 67% 29.96 in 10.0 mi WNW 15.0 mph 21.9 mph N/A   Clear
7:35 AM 53.6 °F 44.6 °F 72% 29.97 in 10.0 mi WNW 13.8 mph 21.9 mph N/A   Clear
7:55 AM 53.6 °F 44.6 °F 72% 29.97 in 10.0 mi WNW 12.7 mph - N/A   Clear
8:15 AM 53.6 °F 44.6 °F 72% 29.97 in 10.0 mi WNW 11.5 mph - N/A   Clear
8:35 AM 53.6 °F 42.8 °F 67% 29.99 in 10.0 mi WNW 21.9 mph 26.5 mph N/A   Clear
8:55 AM 55.4 °F 42.8 °F 63% 29.99 in 10.0 mi WNW 19.6 mph - N/A   Clear
9:15 AM - - N/A% - - North - - N/A   Unknown
9:35 AM 55.4 °F 39.2 °F 54% 30.00 in 10.0 mi WNW 20.7 mph 26.5 mph 0.03 in   Clear
9:55 AM 55.4 °F 37.4 °F 51% 30.00 in 10.0 mi WNW 19.6 mph 32.2 mph 0.03 in   Clear
10:15 AM 57.2 °F 37.4 °F 48% 30.00 in 10.0 mi WNW 19.6 mph 31.1 mph N/A   Clear
10:35 AM 59.0 °F 37.4 °F 45% 30.00 in 10.0 mi WNW 23.0 mph 32.2 mph N/A   Clear
10:55 AM 60.8 °F 37.4 °F 42% 30.00 in 10.0 mi NW 27.6 mph 32.2 mph N/A   Clear
11:15 AM 60.8 °F 37.4 °F 42% 30.00 in 10.0 mi WNW 24.2 mph 31.1 mph N/A   Clear
11:35 AM 62.6 °F 37.4 °F 39% 29.99 in 10.0 mi WNW 21.9 mph 32.2 mph N/A   Clear
11:55 AM 62.6 °F 35.6 °F 37% 29.99 in 10.0 mi WNW 29.9 mph 38.0 mph N/A   Clear
12:15 PM 62.6 °F 33.8 °F 34% 29.99 in 10.0 mi WNW 26.5 mph 38.0 mph N/A   Clear
12:35 PM 64.4 °F 33.8 °F 32% 29.99 in 10.0 mi WNW 26.5 mph 32.2 mph N/A   Clear
12:55 PM 64.4 °F 33.8 °F 32% 29.98 in 10.0 mi West 23.0 mph 31.1 mph N/A   Clear
1:15 PM 64.4 °F 33.8 °F 32% 29.98 in 10.0 mi WNW 28.8 mph 36.8 mph N/A   Clear
1:35 PM 66.2 °F 33.8 °F 30% 29.98 in 10.0 mi WNW 28.8 mph 35.7 mph N/A   Clear
1:55 PM 68.0 °F 33.8 °F 28% 29.98 in 10.0 mi WNW 23.0 mph 36.8 mph N/A   Clear
2:15 PM 68.0 °F 33.8 °F 28% 29.98 in 10.0 mi WNW 28.8 mph 34.5 mph N/A   Clear
2:35 PM 68.0 °F 33.8 °F 28% 29.98 in 10.0 mi West 29.9 mph 43.7 mph N/A   Clear
2:55 PM 68.0 °F 33.8 °F 28% 29.98 in 10.0 mi WNW 27.6 mph 35.7 mph N/A   Clear
3:15 PM 68.0 °F 33.8 °F 28% 29.97 in 10.0 mi WNW 24.2 mph 41.4 mph N/A   Clear
3:35 PM 68.0 °F 35.6 °F 30% 29.98 in 10.0 mi NW 28.8 mph 38.0 mph N/A   Clear
3:55 PM 64.4 °F 35.6 °F 34% 29.98 in 10.0 mi WNW 31.1 mph 41.4 mph N/A   Clear
4:15 PM 64.4 °F 35.6 °F 34% 29.99 in 10.0 mi NW 27.6 mph 41.4 mph N/A   Clear
4:35 PM 64.4 °F 35.6 °F 34% 29.99 in 10.0 mi NW 23.0 mph 35.7 mph N/A   Scattered Clouds
4:55 PM 64.4 °F 35.6 °F 34% 30.00 in 10.0 mi WNW 27.6 mph 38.0 mph N/A   Scattered Clouds
5:15 PM 64.4 °F 37.4 °F 37% 30.00 in 10.0 mi NW 26.5 mph 35.7 mph N/A   Mostly Cloudy
5:35 PM 62.6 °F 37.4 °F 39% 30.00 in 10.0 mi WNW 20.7 mph 27.6 mph N/A   Scattered Clouds
5:55 PM 62.6 °F 37.4 °F 39% 30.00 in 10.0 mi WNW 29.9 mph 38.0 mph N/A   Scattered Clouds
6:15 PM 62.6 °F 37.4 °F 39% 30.01 in 10.0 mi WNW 19.6 mph 27.6 mph N/A   Scattered Clouds
6:35 PM 60.8 °F 35.6 °F 39% 30.02 in 10.0 mi WNW 25.3 mph 33.4 mph N/A   Scattered Clouds
6:55 PM 60.8 °F 37.4 °F 42% 30.03 in 10.0 mi NW 23.0 mph 29.9 mph N/A   Clear
7:15 PM 59.0 °F 37.4 °F 45% 30.04 in 10.0 mi NW 16.1 mph 25.3 mph N/A   Clear
7:35 PM 57.2 °F 37.4 °F 48% 30.04 in 10.0 mi NW 11.5 mph - N/A   Clear
7:55 PM 55.4 °F 39.2 °F 54% 30.04 in 10.0 mi WNW 11.5 mph 18.4 mph N/A   Clear
8:15 PM 55.4 °F 39.2 °F 54% 30.04 in 10.0 mi WNW 10.4 mph 17.3 mph N/A   Clear
8:35 PM 55.4 °F 39.2 °F 54% 30.05 in 10.0 mi WNW 13.8 mph - N/A   Clear
8:55 PM 53.6 °F 39.2 °F 58% 30.06 in 10.0 mi NW 13.8 mph - N/A   Clear
9:15 PM 51.8 °F 41.0 °F 67% 30.07 in 10.0 mi NW 9.2 mph - N/A   Clear
9:35 PM 51.8 °F 41.0 °F 67% 30.09 in 10.0 mi NW 11.5 mph - N/A   Clear
9:55 PM 51.8 °F 41.0 °F 67% 30.08 in 10.0 mi WNW 9.2 mph - N/A   Clear
10:15 PM 50.0 °F 41.0 °F 71% 30.08 in 10.0 mi WNW 10.4 mph - N/A   Clear
10:35 PM 50.0 °F 41.0 °F 71% 30.09 in 10.0 mi WNW 11.5 mph - N/A   Clear
10:55 PM 50.0 °F 41.0 °F 71% 30.09 in 10.0 mi West 10.4 mph - N/A   Clear
11:15 PM 50.0 °F 41.0 °F 71% 30.08 in 10.0 mi WNW 9.2 mph - N/A   Clear
11:35 PM 50.0 °F 39.2 °F 66% 30.09 in 10.0 mi WNW 10.4 mph - N/A   Clear
11:55 PM 50.0 °F 39.2 °F 66% 30.09 in 10.0 mi WNW 9.2 mph - N/A   Clear